Princeton, MN

10:43 AM CST on December 09, 2019 (GMT -0600)
Princeton Municipal

Weather History for KPNM - May, 2019

Change the Weather History Date:

Saturday, May 18, 2019

  Actual Average Record
Temperature  
Mean Temperature 46 °F -  
Max Temperature 51 °F 64 °F 91 °F (2012)
Min Temperature 42 °F 41 °F 1 °F (1999)
Degree Days  
Heating Degree Days 18    
Moisture  
Dew Point 42 °F    
Average Humidity 85    
Maximum Humidity 93    
Minimum Humidity 58    
Precipitation  
Precipitation 0.00 in - - ()
Sea Level Pressure  
Sea Level Pressure 29.78 in    
Wind  
Wind Speed 11 mph (NE)    
Max Wind Speed 20 mph    
Max Gust Speed 29 mph    
Visibility 9 miles    
Events Rain , Thunderstorm    
Averages and records for this station are not official NWS values.
T = Trace of Precipitation, MM = Missing Value Source: NWS Daily Summary

Daily Weather History Graph

Daily Weather History Graph

Search for Another Location

Airport or City:

Astronomy

May. 18, 2019 Rise Set
Actual Time 5:40 AM CDT 8:41 PM CDT
Civil Twilight 5:05 AM CDT 9:17 PM CDT
Nautical Twilight 4:20 AM CDT 10:02 PM CDT
Astronomical Twilight 3:26 AM CDT 10:56 PM CDT
Moon 8:35 PM CDT (5/18) 5:52 AM CDT (5/18)
Length of Visible Light 16h 11m
Length of Day
15h 01m
Full, 100% of the Moon is Illuminated
May 18
Full
May 18
Full
May 26
Last Quarter
Jun 3
New
Jun 10
First Quarter

Hourly Weather History & Observations

Time (CDT) Temp. Windchill Dew Point Humidity Pressure Visibility Wind Dir Wind Speed Gust Speed Precip Events Conditions
12:15 AM 51.8 °F - 37.4 °F 58% 29.84 in 10.0 mi NE 6.9 mph - N/A Rain Rain
12:16 AM 51.8 °F - 37.4 °F 58% 29.84 in 10.0 mi NE 8.1 mph - N/A Rain Rain
12:35 AM 48.2 °F - 39.2 °F 71% 29.85 in 10.0 mi NNE 8.1 mph - N/A Rain Light Rain
12:36 AM 48.2 °F - 39.2 °F 71% 29.85 in 10.0 mi NNE 8.1 mph - N/A Rain Light Rain
12:55 AM 48.2 °F - 37.4 °F 66% 29.84 in 10.0 mi NNE 6.9 mph - N/A Rain Rain
1:15 AM 48.2 °F - 39.2 °F 71% 29.81 in 10.0 mi ENE 9.2 mph - N/A Rain Rain
1:35 AM 46.4 °F 41.1 °F 39.2 °F 76% 29.80 in 10.0 mi NE 11.5 mph 18.4 mph N/A Rain Light Rain
1:36 AM 46.4 °F 41.1 °F 39.2 °F 76% 29.80 in 10.0 mi NE 11.5 mph 18.4 mph N/A Rain Rain
1:55 AM 46.4 °F 41.1 °F 39.2 °F 76% 29.81 in 10.0 mi NNE 11.5 mph 17.3 mph N/A Rain Light Rain
2:15 AM 46.4 °F 41.5 °F 39.2 °F 76% 29.80 in 10.0 mi NNE 10.4 mph 18.4 mph N/A Rain Rain
2:16 AM 46.4 °F 41.5 °F 39.2 °F 76% 29.80 in 10.0 mi NNE 10.4 mph 16.1 mph N/A Rain Rain
2:35 AM 46.4 °F 42.9 °F 39.2 °F 76% 29.82 in 10.0 mi NNE 6.9 mph 16.1 mph N/A Rain , Thunderstorm Thunderstorms and Rain
2:36 AM 46.4 °F 44.3 °F 39.2 °F 76% 29.82 in 10.0 mi NNE 4.6 mph 16.1 mph N/A Rain , Thunderstorm Thunderstorms and Rain
2:55 AM 44.6 °F 40.7 °F 39.2 °F 81% 29.84 in 2.5 mi NNE 6.9 mph - N/A Rain , Thunderstorm Rain
3:15 AM 44.6 °F 38.8 °F 39.2 °F 81% 29.82 in 1.8 mi NE 11.5 mph - N/A Thunderstorm Thunderstorm
3:35 AM 42.8 °F 36.2 °F 39.2 °F 87% 29.79 in 4.0 mi NE 12.7 mph 19.6 mph N/A Rain , Thunderstorm Heavy Thunderstorms and Rain
3:36 AM 42.8 °F 36.2 °F 41.0 °F 93% 29.79 in 4.0 mi NE 12.7 mph 19.6 mph N/A Rain , Thunderstorm Heavy Thunderstorms and Rain
3:55 AM 42.8 °F 36.2 °F 41.0 °F 93% 29.81 in 1.2 mi NNE 12.7 mph 19.6 mph N/A Thunderstorm Overcast
3:56 AM 42.8 °F 36.2 °F 41.0 °F 93% 29.81 in 1.2 mi NNE 12.7 mph 19.6 mph N/A Thunderstorm Overcast
4:15 AM 42.8 °F 36.2 °F 41.0 °F 93% 29.81 in 1.0 mi NNE 12.7 mph 17.3 mph N/A Thunderstorm Thunderstorm
4:35 AM 42.8 °F 36.6 °F 41.0 °F 93% 29.77 in 2.5 mi NE 11.5 mph 23.0 mph N/A Rain , Thunderstorm Thunderstorms and Rain
4:55 AM 44.6 °F 39.2 °F 42.8 °F 93% 29.75 in 10.0 mi NE 10.4 mph - N/A Rain , Thunderstorm Light Thunderstorms and Rain
5:15 AM 44.6 °F 38.1 °F 42.8 °F 93% 29.73 in 4.0 mi ENE 13.8 mph 21.9 mph N/A Rain , Thunderstorm Heavy Thunderstorms and Rain
5:35 AM 44.6 °F 38.8 °F 42.8 °F 93% 29.75 in 4.0 mi ENE 11.5 mph 21.9 mph N/A Rain , Thunderstorm Heavy Thunderstorms and Rain
5:55 AM 46.4 °F 40.7 °F 44.6 °F 93% 29.80 in 7.0 mi ENE 12.7 mph 23.0 mph N/A Rain , Thunderstorm Light Thunderstorms and Rain
5:56 AM 46.4 °F 41.5 °F 44.6 °F 93% 29.80 in 7.0 mi ENE 10.4 mph 23.0 mph N/A Rain , Thunderstorm Light Thunderstorms and Rain
6:15 AM 46.4 °F 42.4 °F 44.6 °F 93% 29.80 in 10.0 mi East 8.1 mph - N/A Rain , Thunderstorm Light Thunderstorms and Rain
6:35 AM 46.4 °F 39.8 °F 44.6 °F 93% 29.76 in 10.0 mi ENE 16.1 mph 21.9 mph N/A Rain , Thunderstorm Heavy Thunderstorms and Rain
6:55 AM 46.4 °F 40.1 °F 44.6 °F 93% 29.74 in 10.0 mi East 15.0 mph 25.3 mph N/A Rain Rain
6:56 AM 46.4 °F 39.8 °F 44.6 °F 93% 29.74 in 10.0 mi East 16.1 mph 25.3 mph N/A Rain Rain
7:15 AM 46.4 °F 39.8 °F 44.6 °F 93% 29.75 in 10.0 mi East 16.1 mph 24.2 mph N/A Rain Light Rain
7:16 AM 46.4 °F 39.8 °F 44.6 °F 93% 29.75 in 10.0 mi East 16.1 mph 24.2 mph N/A Rain Light Rain
7:35 AM 46.4 °F 39.5 °F 44.6 °F 93% 29.75 in 10.0 mi East 17.3 mph 26.5 mph N/A   Overcast
7:36 AM 46.4 °F 39.8 °F 44.6 °F 93% 29.75 in 10.0 mi East 16.1 mph 26.5 mph N/A   Overcast
8:15 AM 46.4 °F 40.7 °F 44.6 °F 93% 29.75 in 10.0 mi East 12.7 mph 23.0 mph N/A   Overcast
8:35 AM 46.4 °F 39.8 °F 42.8 °F 87% 29.73 in 10.0 mi East 16.1 mph 24.2 mph N/A   Overcast
8:36 AM 46.4 °F 39.8 °F 42.8 °F 87% 29.73 in 10.0 mi East 16.1 mph 24.2 mph N/A   Overcast
8:55 AM 46.4 °F 40.7 °F 42.8 °F 87% 29.73 in 10.0 mi East 12.7 mph 25.3 mph N/A   Overcast
9:15 AM 46.4 °F 41.9 °F 42.8 °F 87% 29.72 in 10.0 mi ENE 9.2 mph 19.6 mph N/A   Overcast
9:35 AM 46.4 °F 40.1 °F 42.8 °F 87% 29.71 in 10.0 mi ENE 15.0 mph 27.6 mph N/A   Light Drizzle
9:36 AM 46.4 °F 40.1 °F 42.8 °F 87% 29.71 in 10.0 mi ENE 15.0 mph 27.6 mph N/A   Light Drizzle
9:55 AM 46.4 °F 41.9 °F 42.8 °F 87% 29.72 in 10.0 mi ENE 9.2 mph 16.1 mph N/A Rain Rain
10:15 AM 46.4 °F 40.7 °F 42.8 °F 87% 29.75 in 10.0 mi East 12.7 mph 19.6 mph N/A Rain Light Rain
10:16 AM 46.4 °F 40.7 °F 42.8 °F 87% 29.76 in 10.0 mi East 12.7 mph 19.6 mph N/A Rain Light Rain
10:35 AM 46.4 °F 41.9 °F 42.8 °F 87% 29.77 in 10.0 mi ENE 9.2 mph - N/A Rain Light Rain
10:55 AM 46.4 °F 41.1 °F 42.8 °F 87% 29.77 in 10.0 mi ENE 11.5 mph 18.4 mph N/A   Light Drizzle
11:15 AM 46.4 °F 42.9 °F 42.8 °F 87% 29.78 in 10.0 mi NE 6.9 mph - N/A   Overcast
11:16 AM 46.4 °F 42.4 °F 42.8 °F 87% 29.78 in 10.0 mi NE 8.1 mph - N/A   Overcast
11:35 AM 46.4 °F 41.9 °F 42.8 °F 87% 29.80 in 10.0 mi NE 9.2 mph - N/A Rain Rain
11:36 AM 46.4 °F 41.5 °F 42.8 °F 87% 29.80 in 10.0 mi NE 10.4 mph - N/A Rain Rain
11:55 AM 44.6 °F 38.8 °F 42.8 °F 93% 29.78 in 7.0 mi NE 11.5 mph - N/A Rain Rain
12:15 PM 44.6 °F 38.4 °F 42.8 °F 93% 29.77 in 5.0 mi NNE 12.7 mph 19.6 mph N/A   Drizzle
12:35 PM 44.6 °F 38.1 °F 42.8 °F 93% 29.77 in 10.0 mi NNE 13.8 mph 21.9 mph N/A   Overcast
12:55 PM 46.4 °F 41.9 °F 42.8 °F 87% 29.81 in 10.0 mi ENE 9.2 mph 24.2 mph N/A   Overcast
12:56 PM 46.4 °F 41.5 °F 42.8 °F 87% 29.82 in 10.0 mi ENE 10.4 mph 24.2 mph N/A   Overcast
1:15 PM 46.4 °F 41.9 °F 42.8 °F 87% 29.79 in 10.0 mi NE 9.2 mph 19.6 mph N/A   Overcast
1:35 PM 46.4 °F 40.1 °F 44.6 °F 93% 29.77 in 10.0 mi NE 15.0 mph 25.3 mph N/A   Overcast
1:55 PM 46.4 °F 40.4 °F 42.8 °F 87% 29.76 in 10.0 mi NE 13.8 mph 25.3 mph N/A   Overcast
1:56 PM 46.4 °F 40.4 °F 42.8 °F 87% 29.76 in 10.0 mi NE 13.8 mph 25.3 mph N/A   Overcast
2:15 PM 46.4 °F 39.5 °F 42.8 °F 87% 29.76 in 10.0 mi NE 17.3 mph 24.2 mph N/A   Overcast
2:35 PM 46.4 °F 39.8 °F 42.8 °F 87% 29.76 in 10.0 mi ENE 16.1 mph 27.6 mph N/A   Overcast
2:55 PM 48.2 °F - 42.8 °F 82% 29.76 in 10.0 mi NE 15.0 mph 26.5 mph N/A   Overcast
3:15 PM 48.2 °F - 42.8 °F 82% 29.76 in 10.0 mi NE 15.0 mph 23.0 mph N/A   Overcast
3:35 PM 48.2 °F - 42.8 °F 82% 29.76 in 10.0 mi NE 12.7 mph 21.9 mph N/A   Overcast
3:36 PM 48.2 °F - 42.8 °F 82% 29.76 in 10.0 mi ENE 16.1 mph 24.2 mph N/A   Overcast
3:55 PM 48.2 °F - 42.8 °F 82% 29.78 in 10.0 mi NE 13.8 mph 23.0 mph N/A   Overcast
4:15 PM 48.2 °F - 42.8 °F 82% 29.80 in 10.0 mi NE 15.0 mph - N/A   Overcast
4:16 PM 48.2 °F - 42.8 °F 82% 29.80 in 10.0 mi NE 13.8 mph 19.6 mph N/A   Overcast
4:35 PM 46.4 °F 41.5 °F 42.8 °F 87% 29.81 in 10.0 mi ENE 10.4 mph - N/A   Overcast
4:36 PM 46.4 °F 40.7 °F 42.8 °F 87% 29.81 in 10.0 mi ENE 12.7 mph 20.7 mph N/A   Overcast
4:55 PM 46.4 °F 40.7 °F 42.8 °F 87% 29.81 in 10.0 mi NE 12.7 mph 25.3 mph N/A   Overcast
5:15 PM 46.4 °F 40.7 °F 42.8 °F 87% 29.81 in 10.0 mi NE 12.7 mph 23.0 mph N/A   Overcast
5:16 PM 46.4 °F 40.7 °F 42.8 °F 87% 29.81 in 10.0 mi NE 12.7 mph 23.0 mph N/A   Overcast
5:35 PM 46.4 °F 41.1 °F 42.8 °F 87% 29.81 in 10.0 mi NE 11.5 mph 18.4 mph N/A Rain Light Rain
5:55 PM 46.4 °F 39.8 °F 42.8 °F 87% 29.80 in 10.0 mi NE 16.1 mph 23.0 mph N/A   Overcast
5:56 PM 46.4 °F 39.2 °F 42.8 °F 87% 29.80 in 10.0 mi NE 18.4 mph 25.3 mph N/A   Overcast
6:15 PM 46.4 °F 40.4 °F 42.8 °F 87% 29.80 in 10.0 mi NE 13.8 mph 20.7 mph N/A   Overcast
6:16 PM 46.4 °F 40.4 °F 42.8 °F 87% 29.80 in 10.0 mi NE 13.8 mph 20.7 mph N/A   Overcast
6:35 PM 46.4 °F 40.7 °F 42.8 °F 87% 29.80 in 10.0 mi NE 12.7 mph 23.0 mph N/A   Overcast
6:55 PM 46.4 °F 40.1 °F 42.8 °F 87% 29.77 in 10.0 mi NE 15.0 mph 27.6 mph N/A   Overcast
6:56 PM 46.4 °F 40.1 °F 42.8 °F 87% 29.77 in 10.0 mi NE 15.0 mph 27.6 mph N/A   Overcast
7:15 PM 46.4 °F 40.1 °F 42.8 °F 87% 29.79 in 10.0 mi NE 15.0 mph 26.5 mph N/A   Overcast
7:16 PM 46.4 °F 40.4 °F 42.8 °F 87% 29.79 in 10.0 mi NE 13.8 mph 26.5 mph N/A   Overcast
7:35 PM 46.4 °F 39.2 °F 41.0 °F 81% 29.79 in 10.0 mi NE 18.4 mph 28.8 mph N/A   Overcast
7:55 PM 46.4 °F 39.0 °F 41.0 °F 81% 29.76 in 10.0 mi NE 19.6 mph 26.5 mph N/A   Overcast
8:15 PM 46.4 °F 40.1 °F 41.0 °F 81% 29.77 in 10.0 mi NE 15.0 mph 24.2 mph N/A   Overcast
8:16 PM 46.4 °F 40.7 °F 41.0 °F 81% 29.77 in 10.0 mi NE 12.7 mph 24.2 mph N/A   Overcast
8:35 PM 46.4 °F 40.1 °F 41.0 °F 81% 29.79 in 10.0 mi NE 15.0 mph 23.0 mph N/A   Overcast
8:55 PM 46.4 °F 39.5 °F 41.0 °F 81% 29.79 in 10.0 mi NE 17.3 mph 27.6 mph N/A   Overcast
9:15 PM 44.6 °F 37.4 °F 41.0 °F 87% 29.79 in 10.0 mi NE 16.1 mph 28.8 mph N/A   Overcast
9:35 PM 44.6 °F 36.9 °F 41.0 °F 87% 29.79 in 10.0 mi NE 18.4 mph 26.5 mph N/A   Overcast
9:55 PM 44.6 °F 38.8 °F 41.0 °F 87% 29.80 in 10.0 mi NE 11.5 mph 20.7 mph N/A   Overcast
9:56 PM 44.6 °F 37.4 °F 41.0 °F 87% 29.80 in 10.0 mi NE 16.1 mph 20.7 mph N/A   Overcast
10:15 PM 44.6 °F 38.4 °F 39.2 °F 81% 29.80 in 10.0 mi NE 12.7 mph 24.2 mph N/A   Overcast
10:35 PM 44.6 °F 38.8 °F 39.2 °F 81% 29.81 in 10.0 mi NE 11.5 mph 21.9 mph N/A Thunderstorm Overcast
10:55 PM 44.6 °F 40.7 °F 39.2 °F 81% 29.82 in 10.0 mi NE 6.9 mph 18.4 mph N/A Rain , Thunderstorm Light Thunderstorms and Rain
10:56 PM 44.6 °F 40.7 °F 39.2 °F 81% 29.82 in 10.0 mi ENE 6.9 mph - N/A Rain , Thunderstorm Light Thunderstorms and Rain
11:15 PM 44.6 °F 38.8 °F 41.0 °F 87% 29.80 in 10.0 mi NE 11.5 mph 18.4 mph N/A Rain , Thunderstorm Light Thunderstorms and Rain
11:35 PM 44.6 °F 37.4 °F 41.0 °F 87% 29.79 in 10.0 mi ENE 16.1 mph 24.2 mph N/A   Overcast
11:55 PM 44.6 °F 37.8 °F 41.0 °F 87% 29.78 in 10.0 mi NE 15.0 mph 19.6 mph N/A Rain , Thunderstorm Rain
11:56 PM 44.6 °F 38.4 °F 41.0 °F 87% 29.78 in 10.0 mi NE 12.7 mph 19.6 mph N/A Rain , Thunderstorm Rain